This demonstration page uses our WeatherBlox Daily Observations layout. Learn more.

Left ArrowRight Arrow

Hourly Observations for November 13, 2015

Temp ( °F °C ) Dew Point ( °F °C ) Humidity (%) Winds ( mph kmh ) Pressure ( in mb ) Visibility ( mi km ) Precip ( " mm )
12:53 am 00:53 Clear 41 5 22 -5.6 47 47 SW 28 44 29.84 1011 10 16 N/A
1:53 am 01:53 Clear 41 5 22 -5.6 47 47 SW 25 41 29.83 1010 10 16 N/A
2:53 am 02:53 Mostly Clear 43 6.1 23 -5 45 45 SW 26 43 29.82 1010 10 16 N/A
3:53 am 03:53 Mostly Cloudy 45 7.2 24 -4.4 44 44 SW 26 43 29.80 1009 10 16 N/A
4:53 am 04:53 Cloudy 45 7.2 26 -3.3 48 48 SW 31 50 29.77 1008 10 16 N/A
5:53 am 05:53 Cloudy 47 8.3 27 -2.8 46 46 SW 30 48 29.75 1008 10 16 N/A
6:53 am 06:53 Clear 48 8.9 28 -2.2 46 46 SW 39 63 29.72 1006 10 16 N/A
7:53 am 07:53 Sunny 49 9.4 28 -2.2 44 44 SW 31 50 29.75 1008 10 16 N/A
8:53 am 08:53 Sunny 49 9.4 30 -1.1 48 48 SW 30 48 29.76 1008 10 16 N/A
9:53 am 09:53 Sunny 52 11.1 31 -0.6 45 45 SW 31 50 29.74 1007 10 16 N/A
10:53 am 10:53 Sunny 55 12.8 32 undefined 42 42 SW 32 52 29.72 1007 10 16 N/A
11:53 am 11:53 Sunny 57 13.9 33 0.6 41 41 SW 30 48 29.71 1006 10 16 N/A
12:53 pm 12:53 Sunny 58 14.4 33 0.6 39 39 SW 37 59 29.65 1004 10 16 N/A
1:53 pm 13:53 Sunny 58 14.4 34 1.1 41 41 SW 39 63 29.65 1004 10 16 N/A
4:53 pm 16:53 Clear 56 13.3 34 1.1 44 44 SW 30 48 29.67 1005 10 16 N/A
5:53 pm 17:53 Clear 53 11.7 34 1.1 48 48 SW 24 39 29.66 1005 10 16 N/A
6:53 pm 18:53 Clear 53 11.7 35 1.7 51 51 WSW 21 33 29.68 1005 10 16 N/A
7:53 pm 19:53 Clear 54 12.2 35 1.7 49 49 SW 22 35 29.68 1005 10 16 N/A
8:53 pm 20:53 Clear 54 12.2 35 1.7 49 49 SW 28 44 29.67 1005 10 16 N/A
9:53 pm 21:53 Clear 52 11.1 35 1.7 53 53 SW 18 30 29.70 1006 10 16 N/A
10:53 pm 22:53 Clear 52 11.1 35 1.7 53 53 SW 17 28 29.70 1006 10 16 N/A
11:53 pm 23:53 Clear 51 10.6 35 1.7 54 54 SW 20 31 29.72 1006 10 16 N/A

Powered by AerisWeather